R9YAAM-13 Weather Reports


Display with metric or nautical units.
time (UTC)temp
F
wind
direction
speed
MPH
gust
MPH
rain 1hr
in
rain 24hr
in
rain mn
in
humidity
%
barometer
mb
20260508060829 62 0 0.0 0.0 0.00 0.00 0.00 82 988.8
20260508055829 62 0 0.0 0.0 0.00 0.00 0.00 82 988.9
20260508054730 62 0 0.0 0.0 0.00 0.00 0.00 81 988.9
20260508053630 61 0 0.0 0.0 0.00 0.00 0.00 81 989.0
20260508052629 61 0 0.0 0.0 0.00 0.00 0.00 80 989.1
20260508051629 61 0 0.0 0.0 0.00 0.00 0.00 81 989.2
20260508050529 61 0 0.0 0.0 0.00 0.00 0.00 81 989.2
20260508045529 61 0 0.0 0.0 0.00 0.00 0.00 82 989.2
20260508044529 61 0 0.0 0.0 0.00 0.00 0.00 82 989.2
20260508043528 61 0 0.0 0.0 0.00 0.00 0.00 82 989.3
20260508042529 61 0 0.0 0.0 0.00 0.00 0.00 82 989.0
20260508041528 61 0 0.0 0.0 0.00 0.00 0.00 83 989.1
20260508040528 61 0 0.0 0.0 0.00 0.00 0.00 83 988.9
20260508035529 60 0 0.0 0.0 0.00 0.00 0.00 83 988.9
20260508034429 60 0 0.0 0.0 0.00 0.00 0.00 83 988.9
20260508033429 59 0 0.0 0.0 0.00 0.00 0.00 84 988.9
20260508032429 59 0 0.0 0.0 0.00 0.00 0.00 85 988.9
20260508031429 59 0 0.0 0.0 0.00 0.00 0.00 85 989.0
20260508030329 59 0 0.0 0.0 0.00 0.00 0.00 84 988.8
20260508025229 59 0 0.0 0.0 0.00 0.00 0.00 84 988.7
20260508024128 59 0 0.0 0.0 0.00 0.00 0.00 82 988.3
20260508023029 59 0 0.0 0.0 0.00 0.00 0.00 82 988.3
20260508022029 59 0 0.0 0.0 0.00 0.00 0.00 82 988.1
20260508021029 59 0 0.0 0.0 0.00 0.00 0.00 82 988.2
20260508020029 59 0 0.0 0.0 0.00 0.00 0.00 80 988.3
20260508015029 59 0 0.0 0.0 0.00 0.00 0.00 78 988.8
20260508014029 59 0 0.0 0.0 0.00 0.00 0.00 76 989.0
20260508012929 60 0 0.0 0.0 0.00 0.00 0.00 73 989.0
20260508011929 60 0 0.0 0.0 0.00 0.00 0.00 74 988.9
20260508010929 60 0 0.0 0.0 0.00 0.00 0.00 74 989.0
20260508005829 60 0 0.0 0.0 0.00 0.00 0.00 75 989.0
20260508004828 59 0 0.0 0.0 0.00 0.00 0.00 75 988.9
20260508003829 59 0 0.0 0.0 0.00 0.00 0.00 74 988.9
20260508002729 60 0 0.0 0.0 0.00 0.00 0.00 72 989.0
20260508001730 60 0 0.0 0.0 0.00 0.00 0.00 68 989.0
20260508000744 60 0 0.0 0.0 0.00 0.00 0.00 68 988.8
20260507235729 61 0 0.0 0.0 0.00 0.00 0.00 65 988.6
20260507234729 61 0 0.0 0.0 0.00 0.00 0.00 63 988.4
20260507233629 62 0 0.0 0.0 0.00 0.00 0.00 58 988.3
20260507232629 62 0 0.0 0.0 0.00 0.00 0.00 56 988.2
20260507231529 62 0 0.0 0.0 0.00 0.00 0.00 58 988.1
20260507230529 62 0 0.0 0.0 0.00 0.00 0.00 59 988.1
20260507225529 62 0 0.0 0.0 0.00 0.00 0.00 59 988.1
20260507224444 62 0 0.0 0.0 0.00 0.00 0.00 58 987.8
20260507223429 62 0 0.0 0.0 0.00 0.00 0.00 59 987.8
20260507222429 62 0 0.0 0.0 0.00 0.00 0.00 58 987.9
20260507221329 62 0 0.0 0.0 0.00 0.00 0.00 57 987.9
20260507220229 62 0 0.0 0.0 0.00 0.00 0.00 57 987.9
20260507215129 62 0 0.0 0.0 0.00 0.00 0.00 57 987.9
20260507214129 62 0 0.0 0.0 0.00 0.00 0.00 57 987.8
20260507213029 62 0 0.0 0.0 0.00 0.00 0.00 57 987.8
20260507211928 62 0 0.0 0.0 0.00 0.00 0.00 57 987.9
20260507210928 62 0 0.0 0.0 0.00 0.00 0.00 57 987.7
20260507205929 62 0 0.0 0.0 0.00 0.00 0.00 56 987.7
20260507204829 62 0 0.0 0.0 0.00 0.00 0.00 56 987.8
20260507203729 62 0 0.0 0.0 0.00 0.00 0.00 56 987.7
20260507202629 63 0 0.0 0.0 0.00 0.00 0.00 55 987.8
20260507201628 63 0 0.0 0.0 0.00 0.00 0.00 54 987.7
20260507200528 63 0 0.0 0.0 0.00 0.00 0.00 53 987.7
20260507195528 63 0 0.0 0.0 0.00 0.00 0.00 53 987.8
20260507194529 63 0 0.0 0.0 0.00 0.00 0.00 52 988.0
20260507193528 64 0 0.0 0.0 0.00 0.00 0.00 52 988.1
20260507192528 64 0 0.0 0.0 0.00 0.00 0.00 52 988.3
20260507191428 64 0 0.0 0.0 0.00 0.00 0.00 51 988.5
20260507190428 64 0 0.0 0.0 0.00 0.00 0.00 51 988.5
20260507185328 64 0 0.0 0.0 0.00 0.00 0.00 50 988.6
20260507184328 64 0 0.0 0.0 0.00 0.00 0.00 51 988.7
20260507183328 64 0 0.0 0.0 0.00 0.00 0.00 51 988.8
20260507182329 64 0 0.0 0.0 0.00 0.00 0.00 52 988.9
20260507181228 64 0 0.0 0.0 0.00 0.00 0.00 52 989.1
20260507180229 64 0 0.0 0.0 0.00 0.00 0.00 52 989.1
20260507175229 64 0 0.0 0.0 0.00 0.00 0.00 51 989.2
20260507174129 64 0 0.0 0.0 0.00 0.00 0.00 51 989.4
20260507173129 64 0 0.0 0.0 0.00 0.00 0.00 54 989.3
20260507172128 64 0 0.0 0.0 0.00 0.00 0.00 54 989.4
20260507171128 63 0 0.0 0.0 0.00 0.00 0.00 58 989.4
20260507170129 62 0 0.0 0.0 0.00 0.00 0.00 59 989.6
20260507165128 62 0 0.0 0.0 0.00 0.00 0.00 58 989.6
20260507164129 62 0 0.0 0.0 0.00 0.00 0.00 58 989.7
20260507163128 62 0 0.0 0.0 0.00 0.00 0.00 57 989.6
20260507162028 63 0 0.0 0.0 0.00 0.00 0.00 57 989.7
20260507160927 63 0 0.0 0.0 0.00 0.00 0.00 56 989.8
20260507155927 63 0 0.0 0.0 0.00 0.00 0.00 56 989.9
20260507154928 63 0 0.0 0.0 0.00 0.00 0.00 55 990.0
20260507153828 64 0 0.0 0.0 0.00 0.00 0.00 55 990.2
20260507152827 64 0 0.0 0.0 0.00 0.00 0.00 54 990.1
20260507151827 64 0 0.0 0.0 0.00 0.00 0.00 54 990.2
20260507150827 64 0 0.0 0.0 0.00 0.00 0.00 53 990.2
20260507145728 64 0 0.0 0.0 0.00 0.00 0.00 52 990.2
20260507144728 64 0 0.0 0.0 0.00 0.00 0.00 52 990.4
20260507143628 65 0 0.0 0.0 0.00 0.00 0.00 52 990.3
20260507142627 65 0 0.0 0.0 0.00 0.00 0.00 51 990.3
20260507141527 66 0 0.0 0.0 0.00 0.00 0.00 50 990.4
20260507140427 66 0 0.0 0.0 0.00 0.00 0.00 49 990.3
20260507135427 67 0 0.0 0.0 0.00 0.00 0.00 48 990.2
20260507134427 66 0 0.0 0.0 0.00 0.00 0.00 48 990.3
20260507133327 67 0 0.0 0.0 0.00 0.00 0.00 48 990.3
20260507132327 67 0 0.0 0.0 0.00 0.00 0.00 47 990.3
20260507131327 68 0 0.0 0.0 0.00 0.00 0.00 46 990.3
20260507130327 68 0 0.0 0.0 0.00 0.00 0.00 46 990.5
20260507125242 68 0 0.0 0.0 0.00 0.00 0.00 45 990.5
20260507124227 68 0 0.0 0.0 0.00 0.00 0.00 45 990.7
20260507123227 68 0 0.0 0.0 0.00 0.00 0.00 46 990.7
20260507122228 69 0 0.0 0.0 0.00 0.00 0.00 45 990.7
20260507121243 69 0 0.0 0.0 0.00 0.00 0.00 45 990.8
20260507120242 70 0 0.0 0.0 0.00 0.00 0.00 43 990.9
20260507115127 71 0 0.0 0.0 0.00 0.00 0.00 42 990.8
20260507114143 72 0 0.0 0.0 0.00 0.00 0.00 40 990.9
20260507113128 73 0 0.0 0.0 0.00 0.00 0.00 36 990.8
20260507112027 73 0 0.0 0.0 0.00 0.00 0.00 36 990.9
20260507110927 72 0 0.0 0.0 0.00 0.00 0.00 37 990.9
20260507105927 73 0 0.0 0.0 0.00 0.00 0.00 37 991.1
20260507104927 72 0 0.0 0.0 0.00 0.00 0.00 38 991.0
20260507103927 72 0 0.0 0.0 0.00 0.00 0.00 37 991.1
20260507102927 72 0 0.0 0.0 0.00 0.00 0.00 39 991.1
20260507101928 72 0 0.0 0.0 0.00 0.00 0.00 38 991.3
20260507100828 73 0 0.0 0.0 0.00 0.00 0.00 38 991.2
20260507095827 73 0 0.0 0.0 0.00 0.00 0.00 37 991.3
20260507094828 74 0 0.0 0.0 0.00 0.00 0.00 36 991.3
20260507093727 75 0 0.0 0.0 0.00 0.00 0.00 37 991.2
20260507092727 75 0 0.0 0.0 0.00 0.00 0.00 36 991.3
20260507091728 76 0 0.0 0.0 0.00 0.00 0.00 36 991.4
20260507090628 76 0 0.0 0.0 0.00 0.00 0.00 36 991.4
20260507085628 76 0 0.0 0.0 0.00 0.00 0.00 37 991.5
20260507084628 77 0 0.0 0.0 0.00 0.00 0.00 39 991.6
20260507083527 75 0 0.0 0.0 0.00 0.00 0.00 36 991.7
20260507082428 77 0 0.0 0.0 0.00 0.00 0.00 38 991.7
20260507081427 76 0 0.0 0.0 0.00 0.00 0.00 39 991.7
20260507080427 77 0 0.0 0.0 0.00 0.00 0.00 40 991.8
20260507075328 76 0 0.0 0.0 0.00 0.00 0.00 42 991.8
20260507074328 75 0 0.0 0.0 0.00 0.00 0.00 42 991.9
20260507073327 74 0 0.0 0.0 0.00 0.00 0.00 43 991.9
20260507072328 75 0 0.0 0.0 0.00 0.00 0.00 43 992.0
20260507071228 75 0 0.0 0.0 0.00 0.00 0.00 41 992.1
20260507070127 72 0 0.0 0.0 0.00 0.00 0.00 44 992.2
20260507065128 71 0 0.0 0.0 0.00 0.00 0.00 44 992.2
20260507064027 72 0 0.0 0.0 0.00 0.00 0.00 43 992.3
20260507063027 72 0 0.0 0.0 0.00 0.00 0.00 45 992.4
20260507061927 72 0 0.0 0.0 0.00 0.00 0.00 44 992.4